Simultaneous Nadir Overpasses (SNOs) Predictions

Prediction of SNOs between NOAA-21 and AQUA Satellite Orbit:

Table of predicted SNOs for the next 14.0 days since TLE Epoch: 7/20/2024
Index Date (NOAA-21) Time (NOAA-21) Lat,Lon (NOAA-21) SZA (NOAA-21 ) Date (AQUA) Time (AQUA) Lat,Lon (AQUA) SZA (AQUA ) Distance(km) Time Diff (sec)
1 07/21/2024 23:13:57 -81.22, -64.56 111.86 07/21/2024 23:13:52 -81.22, -64.58 111.85 0.31 5
2 07/24/2024 11:17:07 81.22, -65.38 68.67 07/24/2024 11:17:11 81.21, -65.52 68.68 2.52 4
3 07/26/2024 23:20:19 -81.22, -66.31 110.77 07/26/2024 23:20:30 -81.22, -66.17 110.80 2.39 11
4 07/27/2024 00:11:01 81.24, 101.94 69.10 07/27/2024 00:09:50 81.24, 101.82 69.17 2.03 71
5 07/29/2024 11:23:29 81.22, -66.96 69.79 07/29/2024 11:23:46 81.23, -66.87 69.76 1.59 17
6 07/29/2024 12:14:13 -81.23, 100.95 110.30 07/29/2024 12:13:08 -81.23, 100.95 110.26 0.09 65
7 07/31/2024 23:26:40 -81.23, -67.62 109.63 07/31/2024 23:27:02 -81.23, -67.58 109.65 0.80 22



Historial Predications of SNOs between NOAA-21 and AQUA
